Location: Équennes
(49.7375°N, 1.9622°E)
Time: 00:44:48
(UTC+00:00)

Cosmos 1656 - Pass Details

Date: 10 October 2023
Orbit: 797 x 849 km, 71.1° (Epoch: 03 December)

Event Time Altitude Azimuth Distance (km) Brightness Sun altitude
Rises 22:00:51 0° 325° (NW) 3,325 7.6 -42.4°
Reaches altitude 10° 22:03:26 10° 317° (NW) 2,396 6.7 -42.6°
Enters shadow 22:04:27 15° 312° (NW) 2,052 6.2 -42.7°
